WB8ZTP Weather Reports


Display with metric or nautical units.
time (UTC)temp
F
wind
direction
speed
MPH
gust
MPH
rain 1hr
in
rain 24hr
in
rain mn
in
humidity
%
barometer
mb
20260508210039 64 213 4.0 12.0 0.00 0.00 0.00 49 1012.0
20260508204538 64 225 4.0 11.0 0.00 0.00 0.00 49 1012.3
20260508203036 64 204 4.0 10.0 0.00 0.00 0.00 51 1012.3
20260508201535 64 211 6.0 16.0 0.00 0.00 0.00 51 1012.5
20260508200033 63 196 6.0 13.0 0.00 0.00 0.00 51 1012.7
20260508194534 63 198 2.0 11.0 0.00 0.00 0.00 53 1012.9
20260508193031 63 196 5.0 10.0 0.00 0.00 0.00 52 1013.0
20260508191530 64 252 7.0 14.0 0.00 0.00 0.00 50 1013.0
20260508190034 64 229 5.0 14.0 0.00 0.00 0.00 52 1013.0
20260508184538 64 166 3.0 10.0 0.00 0.00 0.00 55 1013.6
20260508183023 63 196 4.0 12.0 0.00 0.00 0.00 54 1013.9
20260508181522 63 177 3.0 13.0 0.00 0.00 0.00 55 1014.2
20260508180015 62 217 4.0 9.0 0.00 0.00 0.00 58 1014.7
20260508174524 61 190 4.0 8.0 0.00 0.00 0.00 59 1014.9
20260508173009 60 213 1.0 8.0 0.00 0.00 0.00 60 1015.3
20260508171507 60 159 3.0 9.0 0.00 0.00 0.00 58 1015.4
20260508170006 60 209 1.0 8.0 0.00 0.00 0.00 59 1015.6
20260508164504 60 212 2.0 10.0 0.00 0.00 0.00 56 1015.7
20260508163002 59 214 4.0 13.0 0.00 0.00 0.00 59 1015.8
20260508161559 59 216 1.0 10.0 0.00 0.00 0.00 61 1016.0
20260508160058 57 262 3.0 9.0 0.00 0.00 0.00 63 1016.2
20260508154552 56 213 4.0 12.0 0.00 0.00 0.00 61 1016.2
20260508153051 55 193 3.0 7.0 0.00 0.00 0.00 65 1016.5
20260508151547 54 183 3.0 8.0 0.00 0.00 0.00 67 1016.7
20260508150046 54 211 4.0 7.0 0.00 0.00 0.00 67 1016.7
20260508144548 54 211 3.0 7.0 0.00 0.00 0.00 65 1016.7
20260508143053 54 229 5.0 9.0 0.00 0.00 0.00 63 1016.6
20260508141555 54 159 3.0 11.0 0.00 0.00 0.00 62 1016.6
20260508140044 55 205 6.0 9.0 0.00 0.00 0.00 63 1016.6
20260508134554 53 207 5.0 9.0 0.00 0.00 0.00 65 1016.7
20260508133037 52 165 4.0 11.0 0.00 0.00 0.00 66 1016.7
20260508131534 52 190 4.0 10.0 0.00 0.00 0.00 65 1016.5
20260508130030 51 203 4.0 8.0 0.00 0.00 0.00 70 1016.5
20260508124529 50 216 4.0 8.0 0.00 0.00 0.00 69 1016.4
20260508123025 49 180 5.0 10.0 0.00 0.00 0.00 70 1016.5
20260508121531 48 209 3.0 9.0 0.00 0.00 0.00 72 1016.6
20260508120121 47 185 4.0 9.0 0.00 0.00 0.00 74 1016.5
20260508114519 46 199 4.0 7.0 0.00 0.00 0.00 76 1016.5
20260508113018 45 228 3.0 7.0 0.00 0.00 0.00 77 1016.5
20260508111518 45 207 2.0 7.0 0.00 0.00 0.00 78 1016.2
20260508110019 44 183 2.0 6.0 0.00 0.00 0.00 79 1016.2
20260508104517 43 198 2.0 6.0 0.00 0.00 0.00 81 1016.0
20260508103014 43 177 0.0 4.0 0.00 0.00 0.00 82 1015.9
20260508101516 43 212 0.0 4.0 0.00 0.00 0.00 82 1015.9
20260508100018 43 196 0.0 2.0 0.00 0.00 0.00 81 1015.8
20260508094511 43 200 0.0 4.0 0.00 0.00 0.00 81 1015.8
20260508093010 43 194 0.0 4.0 0.00 0.00 0.00 81 1015.8
20260508091509 44 194 0.0 3.0 0.00 0.00 0.00 81 1016.0
20260508090008 43 182 1.0 4.0 0.00 0.00 0.00 82 1016.0
20260508084507 43 202 1.0 4.0 0.00 0.00 0.00 81 1015.9
20260508083006 43 232 0.0 4.0 0.00 0.00 0.00 81 1015.9
20260508081513 44 179 0.0 0.0 0.00 0.00 0.00 79 1016.0
20260508080005 46 179 0.0 0.0 0.00 0.00 0.00 76 1016.0
20260508074502 47 179 0.0 0.0 0.00 0.00 0.00 75 1016.1
20260508073002 47 179 0.0 0.0 0.00 0.00 0.00 75 1016.3
20260508071502 47 178 0.0 2.0 0.00 0.00 0.00 74 1016.6
20260508070104 48 198 0.0 3.0 0.00 0.00 0.00 75 1016.6
20260508064600 48 9 0.0 4.0 0.00 0.00 0.00 70 1016.7
20260508063106 47 210 0.0 4.0 0.00 0.00 0.00 72 1016.8
20260508061557 47 188 0.0 3.0 0.00 0.00 0.00 72 1016.6
20260508060057 47 187 0.0 3.0 0.00 0.00 0.00 73 1016.2
20260508054552 47 184 0.0 3.0 0.00 0.00 0.00 73 1016.4
20260508053051 46 198 0.0 3.0 0.00 0.00 0.00 74 1016.4
20260508051547 46 184 0.0 3.0 0.00 0.00 0.00 76 1016.5
20260508050043 45 204 0.0 5.0 0.00 0.00 0.00 82 1016.6
20260508044540 43 159 0.0 0.0 0.00 0.00 0.00 86 1016.7
20260508043040 43 283 0.0 0.0 0.00 0.00 0.00 86 1016.8
20260508041537 43 283 0.0 0.0 0.00 0.00 0.00 86 1016.6
20260508040042 43 283 0.0 0.0 0.00 0.00 0.00 86 1016.6
20260508034535 42 283 0.0 0.0 0.00 0.00 0.00 86 1016.7
20260508033034 42 283 0.0 0.0 0.00 0.00 0.00 85 1016.5
20260508031536 42 283 0.0 0.0 0.00 0.00 0.00 85 1016.6
20260508030034 42 283 0.0 0.0 0.00 0.00 0.00 84 1016.6
20260508024545 43 283 0.0 0.0 0.00 0.00 0.00 84 1016.6
20260508023033 43 283 0.0 0.0 0.00 0.00 0.00 84 1016.7
20260508021532 43 283 0.0 0.0 0.00 0.00 0.00 84 1016.5
20260508020031 43 283 0.0 0.0 0.00 0.00 0.00 82 1016.5
20260508014539 44 283 0.0 0.0 0.00 0.00 0.00 80 1016.5
20260508013030 45 283 0.0 0.0 0.00 0.00 0.00 78 1016.5
20260508011530 45 283 0.0 0.0 0.00 0.00 0.00 76 1016.4
20260508010035 47 283 0.0 0.0 0.00 0.00 0.00 75 1016.1
20260508004533 48 283 0.0 0.0 0.00 0.00 0.00 69 1016.1
20260508003030 50 283 0.0 0.0 0.00 0.00 0.00 64 1016.0
20260508001530 52 283 0.0 1.0 0.00 0.00 0.00 59 1015.9
20260508000027 53 321 0.0 1.0 0.00 0.00 0.00 56 1015.8
20260507234528 54 322 0.0 5.0 0.00 0.00 0.00 50 1015.8
20260507233038 55 5 2.0 5.0 0.00 0.00 0.00 47 1015.7
20260507231534 56 360 2.0 8.0 0.00 0.00 0.00 46 1015.7
20260507230027 56 319 5.0 9.0 0.00 0.00 0.00 45 1015.7
20260507224531 57 36 2.0 9.0 0.00 0.00 0.00 44 1015.8
20260507223025 57 288 3.0 10.0 0.00 0.00 0.00 44 1015.9
20260507221534 57 5 3.0 8.0 0.00 0.00 0.00 45 1015.9
20260507220023 57 266 3.0 13.0 0.00 0.00 0.00 48 1015.7
20260507214523 56 5 3.0 9.0 0.00 0.00 0.00 45 1015.7
20260507213024 58 211 4.0 8.0 0.00 0.00 0.00 46 1015.5
20260507211524 58 311 2.0 9.0 0.00 0.00 0.00 47 1015.5